Terminal Aerodrome Forecast
Issued by NWS

Home | Current Version | Previous Version | Text Only | Print | Product List | Glossary On
Versions: 1 2 3 4 5 6 7 8 9 10 11 12 13 14 15 16 17 18 19 20 21 22 23 24 25 26 27 28 29 30 31 32 33 34 35 36 37 38 39 40 41 42 43 44
000
FTUS43 KMKX 010534
TAFUES
TAF
KUES 010534Z 0106/0206 VRB03KT P6SM OVC004
      TEMPO 0106/0107 5SM -DZ BKN005 OVC015
     FM010700 VRB03KT P6SM SCT006 BKN015
     FM011300 14006KT P6SM BKN018
     FM011700 15012KT P6SM SCT030 BKN250
     FM020100 16008KT P6SM SCT050 BKN080=

USA.gov is the U.S. government's official web portal to all federal, state and local government web resources and services.